TimeEDT,TemperatureF,Dew PointF,Humidity,Sea Level PressureIn,VisibilityMPH,Wind Direction,Wind SpeedMPH,Gust SpeedMPH,PrecipitationIn,Events,Conditions,WindDirDegrees,DateUTC
12:15 AM,57.2,55.4,94,30.22,10.0,SSW,3.5,-,N/A,,Clear,200,2013-08-17 04:15:00
12:35 AM,59.0,55.4,88,30.22,10.0,Calm,Calm,-,N/A,,Clear,0,2013-08-17 04:35:00
12:55 AM,57.2,55.4,94,30.22,10.0,Calm,Calm,-,N/A,,Clear,0,2013-08-17 04:55:00
1:15 AM,55.4,53.6,94,30.22,10.0,Calm,Calm,-,N/A,,Clear,0,2013-08-17 05:15:00
1:35 AM,55.4,55.4,100,30.23,10.0,Calm,Calm,-,N/A,,Clear,0,2013-08-17 05:35:00
1:55 AM,55.4,55.4,100,30.23,10.0,Calm,Calm,-,N/A,,Scattered Clouds,0,2013-08-17 05:55:00
2:15 AM,53.6,53.6,100,30.23,10.0,Calm,Calm,-,N/A,,Scattered Clouds,0,2013-08-17 06:15:00
2:35 AM,53.6,53.6,100,30.23,10.0,Calm,Calm,-,N/A,,Clear,0,2013-08-17 06:35:00
2:55 AM,53.6,53.6,100,30.22,10.0,Calm,Calm,-,N/A,,Clear,0,2013-08-17 06:55:00
3:15 AM,53.6,53.6,100,30.23,10.0,Calm,Calm,-,N/A,,Scattered Clouds,0,2013-08-17 07:15:00
3:35 AM,53.6,53.6,100,30.23,7.0,Calm,Calm,-,N/A,,Mostly Cloudy,0,2013-08-17 07:35:00
3:55 AM,53.6,53.6,100,30.22,10.0,Calm,Calm,-,N/A,,Scattered Clouds,0,2013-08-17 07:55:00
4:15 AM,51.8,51.8,100,30.22,7.0,Calm,Calm,-,N/A,,Clear,0,2013-08-17 08:15:00
4:35 AM,50.0,50.0,100,30.23,7.0,Calm,Calm,-,N/A,,Clear,0,2013-08-17 08:35:00
4:55 AM,50.0,50.0,100,30.24,7.0,Calm,Calm,-,N/A,,Scattered Clouds,0,2013-08-17 08:55:00
5:15 AM,50.0,50.0,100,30.25,7.0,Calm,Calm,-,N/A,,Mostly Cloudy,0,2013-08-17 09:15:00
5:35 AM,51.8,51.8,100,30.26,5.0,Calm,Calm,-,N/A,,Mostly Cloudy,0,2013-08-17 09:35:00
5:55 AM,51.8,51.8,100,30.25,7.0,Calm,Calm,-,N/A,,Scattered Clouds,0,2013-08-17 09:55:00
6:15 AM,51.8,51.8,100,30.25,5.0,Calm,Calm,-,N/A,,Scattered Clouds,0,2013-08-17 10:15:00
6:35 AM,51.8,51.8,100,30.26,7.0,Calm,Calm,-,N/A,,Mostly Cloudy,0,2013-08-17 10:35:00
6:55 AM,50.0,50.0,100,30.27,5.0,Calm,Calm,-,N/A,,Mostly Cloudy,0,2013-08-17 10:55:00
7:15 AM,51.8,51.8,100,30.27,4.0,Calm,Calm,-,N/A,,Scattered Clouds,0,2013-08-17 11:15:00
7:35 AM,53.6,53.6,100,30.27,5.0,Calm,Calm,-,N/A,,Scattered Clouds,0,2013-08-17 11:35:00
7:55 AM,55.4,55.4,100,30.28,10.0,Calm,Calm,-,N/A,,Scattered Clouds,0,2013-08-17 11:55:00
8:15 AM,59.0,59.0,100,30.28,10.0,Calm,Calm,-,N/A,,Scattered Clouds,0,2013-08-17 12:15:00
8:35 AM,59.0,59.0,100,30.28,10.0,Calm,Calm,-,N/A,,Scattered Clouds,0,2013-08-17 12:35:00
8:55 AM,62.6,59.0,88,30.28,10.0,Calm,Calm,-,N/A,,Clear,0,2013-08-17 12:55:00
9:15 AM,62.6,59.0,88,30.28,10.0,Calm,Calm,-,N/A,,Scattered Clouds,0,2013-08-17 13:15:00
9:35 AM,64.4,59.0,83,30.28,10.0,NNE,3.5,-,N/A,,Scattered Clouds,20,2013-08-17 13:35:00
9:55 AM,68.0,59.0,73,30.28,10.0,East,3.5,-,N/A,,Clear,80,2013-08-17 13:55:00
10:15 AM,68.0,59.0,73,30.28,10.0,Calm,Calm,-,N/A,,Scattered Clouds,0,2013-08-17 14:15:00
10:35 AM,69.8,59.0,68,30.28,10.0,East,3.5,-,N/A,,Scattered Clouds,100,2013-08-17 14:35:00
10:55 AM,69.8,59.0,68,30.29,10.0,NNE,3.5,-,N/A,,Scattered Clouds,20,2013-08-17 14:55:00
11:15 AM,71.6,59.0,64,30.30,10.0,East,4.6,-,N/A,,Clear,80,2013-08-17 15:15:00
11:35 AM,71.6,59.0,64,30.28,10.0,East,5.8,-,N/A,,Clear,100,2013-08-17 15:35:00
11:55 AM,73.4,59.0,61,30.28,10.0,ESE,6.9,-,N/A,,Clear,120,2013-08-17 15:55:00
12:15 PM,73.4,59.0,61,30.27,10.0,ESE,8.1,-,N/A,,Scattered Clouds,110,2013-08-17 16:15:00
12:35 PM,73.4,59.0,61,30.27,10.0,East,8.1,-,N/A,,Scattered Clouds,90,2013-08-17 16:35:00
12:55 PM,75.2,59.0,57,30.27,10.0,ENE,5.8,9.2,N/A,,Scattered Clouds,70,2013-08-17 16:55:00
1:15 PM,75.2,59.0,57,30.27,10.0,ESE,6.9,-,N/A,,Scattered Clouds,120,2013-08-17 17:15:00
1:35 PM,77.0,59.0,54,30.26,10.0,ESE,9.2,-,N/A,,Scattered Clouds,110,2013-08-17 17:35:00
1:55 PM,77.0,57.2,50,30.26,10.0,ESE,9.2,-,N/A,,Scattered Clouds,120,2013-08-17 17:55:00
2:15 PM,77.0,59.0,54,30.26,10.0,SE,8.1,17.3,N/A,,Mostly Cloudy,130,2013-08-17 18:15:00
2:35 PM,75.2,59.0,57,30.25,10.0,SE,10.4,-,N/A,,Mostly Cloudy,130,2013-08-17 18:35:00
2:55 PM,77.0,59.0,54,30.25,10.0,SE,9.2,-,N/A,,Scattered Clouds,130,2013-08-17 18:55:00
3:15 PM,77.0,59.0,54,30.24,10.0,ESE,9.2,-,N/A,,Mostly Cloudy,120,2013-08-17 19:15:00
3:35 PM,77.0,59.0,54,30.23,10.0,SE,3.5,-,N/A,,Mostly Cloudy,140,2013-08-17 19:35:00
3:55 PM,77.0,57.2,50,30.23,10.0,SE,10.4,-,N/A,,Scattered Clouds,130,2013-08-17 19:55:00
4:15 PM,77.0,59.0,54,30.23,10.0,ESE,5.8,-,N/A,,Mostly Cloudy,110,2013-08-17 20:15:00
4:35 PM,75.2,59.0,57,30.23,10.0,East,4.6,-,N/A,,Overcast,90,2013-08-17 20:35:00
4:55 PM,75.2,59.0,57,30.23,10.0,East,6.9,-,N/A,,Overcast,100,2013-08-17 20:55:00
5:15 PM,77.0,59.0,54,30.23,10.0,SE,5.8,-,N/A,,Overcast,130,2013-08-17 21:15:00
5:35 PM,75.2,59.0,57,30.23,10.0,ESE,6.9,-,N/A,,Overcast,120,2013-08-17 21:35:00
5:55 PM,75.2,59.0,57,30.24,10.0,SE,5.8,-,N/A,,Overcast,130,2013-08-17 21:55:00
6:15 PM,73.4,59.0,61,30.23,10.0,ESE,3.5,-,N/A,,Overcast,110,2013-08-17 22:15:00
6:35 PM,73.4,59.0,61,30.23,10.0,SE,4.6,-,N/A,,Overcast,130,2013-08-17 22:35:00
6:55 PM,73.4,60.8,65,30.23,10.0,SE,3.5,-,N/A,,Overcast,130,2013-08-17 22:55:00
7:15 PM,71.6,60.8,69,30.23,10.0,East,4.6,-,N/A,,Mostly Cloudy,100,2013-08-17 23:15:00
7:35 PM,71.6,60.8,69,30.24,10.0,ESE,3.5,-,N/A,,Scattered Clouds,110,2013-08-17 23:35:00
7:55 PM,71.6,60.8,69,30.23,10.0,East,3.5,-,N/A,,Mostly Cloudy,90,2013-08-17 23:55:00
8:15 PM,71.6,60.8,69,30.24,10.0,Calm,Calm,-,N/A,,Overcast,0,2013-08-18 00:15:00
8:35 PM,69.8,60.8,73,30.24,10.0,East,3.5,-,N/A,,Mostly Cloudy,100,2013-08-18 00:35:00
8:55 PM,68.0,60.8,78,30.25,10.0,ESE,3.5,-,N/A,,Mostly Cloudy,120,2013-08-18 00:55:00
9:15 PM,69.8,60.8,73,30.25,10.0,East,4.6,-,N/A,,Mostly Cloudy,100,2013-08-18 01:15:00
9:35 PM,68.0,60.8,78,30.25,10.0,SE,3.5,-,N/A,,Scattered Clouds,130,2013-08-18 01:35:00
9:55 PM,68.0,60.8,78,30.25,10.0,Calm,Calm,-,N/A,,Scattered Clouds,0,2013-08-18 01:55:00
10:15 PM,68.0,60.8,78,30.25,10.0,Calm,Calm,-,N/A,,Mostly Cloudy,0,2013-08-18 02:15:00
10:35 PM,66.2,60.8,83,30.25,10.0,Calm,Calm,-,N/A,,Overcast,0,2013-08-18 02:35:00
10:55 PM,66.2,60.8,83,30.25,10.0,Calm,Calm,-,N/A,,Mostly Cloudy,0,2013-08-18 02:55:00
11:15 PM,64.4,60.8,88,30.25,10.0,Calm,Calm,-,N/A,,Scattered Clouds,0,2013-08-18 03:15:00
11:35 PM,64.4,60.8,88,30.25,10.0,Calm,Calm,-,N/A,,Scattered Clouds,0,2013-08-18 03:35:00
11:55 PM,64.4,60.8,88,30.25,10.0,Calm,Calm,-,N/A,,Clear,0,2013-08-18 03:55:00